Weather History for Duncan, OK

Change the Weather History Date:

Tuesday, November 27, 2012

  Actual Average (KLAW) Record (KLAW)
Temperature  
Mean Temperature 42 °F -  
Max Temperature 53 °F 57 °F 79 °F (1960)
Min Temperature 30 °F 32 °F 18 °F (2002)
Degree Days  
Heating Degree Days 24    
Moisture  
Dew Point 30 °F    
Average Humidity 68    
Maximum Humidity 93    
Minimum Humidity 38    
Precipitation  
Precipitation 0.00 in - - ()
Sea Level Pressure  
Sea Level Pressure 30.37 in    
Wind  
Wind Speed 6 mph (East)    
Max Wind Speed 12 mph    
Max Gust Speed 10 mph    
Visibility 10 miles    
Events      
Averages and records for this station are not official NWS values.
T = Trace of Precipitation, MM = Missing Value Source: NWS Daily Summary

Daily Weather History Graph

Daily Weather History Graph

Search for Another Location

Airport:

Trip Planner

Search our weather history database for the weather conditions in past years. The results will help you decide how hot, cold, wet, or windy it might be!

Date:

Astronomy

Nov. 27, 2012 Rise Set
Actual Time 7:17 AM CST 5:22 PM CST
Civil Twilight 6:49 AM CST 5:49 PM CST
Nautical Twilight 6:18 AM CST 6:20 PM CST
Astronomical Twilight 5:48 AM CST 6:50 PM CST
Moon 4:53 PM CST (11/27) 6:24 AM CST (11/27)
Length of Visible Light 10h 59m
Length of Day
10h 04m
Waxing Gibbous, 99% of the Moon is Illuminated
Nov 27
Waxing Gibbous
Nov 28
Full
Dec 6
Last Quarter
Dec 13
New
Dec 19
First Quarter

Hourly Weather History & Observations

Time (CST) Temp. Windchill Dew Point Humidity Pressure Visibility Wind Dir Wind Speed Gust Speed Precip Events Conditions
4:15 AM 33.8 °F 25.3 °F 30.2 °F 87% 30.38 in 10.0 mi North 11.5 mph - N/A   Clear
4:35 AM 32.0 °F 24.2 °F 30.2 °F 93% 30.36 in 10.0 mi North 9.2 mph - N/A   Clear
4:55 AM 32.0 °F 24.8 °F 30.2 °F 93% 30.36 in 10.0 mi North 8.1 mph - N/A   Clear
5:15 AM 32.0 °F 24.2 °F 30.2 °F 93% 30.38 in 10.0 mi North 9.2 mph - N/A   Clear
5:35 AM 32.0 °F 23.6 °F 30.2 °F 93% 30.39 in 10.0 mi North 10.4 mph - N/A   Clear
5:55 AM 32.0 °F 23.6 °F 30.2 °F 93% 30.39 in 10.0 mi North 10.4 mph - N/A   Clear
6:15 AM 32.0 °F 24.2 °F 30.2 °F 93% 30.39 in 10.0 mi North 9.2 mph - N/A   Clear
6:35 AM 32.0 °F 25.6 °F 30.2 °F 93% 30.41 in 10.0 mi North 6.9 mph - N/A   Clear
6:55 AM 32.0 °F 28.7 °F 28.4 °F 87% 30.42 in 10.0 mi North 3.5 mph - N/A   Clear
7:15 AM 32.0 °F 28.7 °F 28.4 °F 87% 30.43 in 10.0 mi NNW 3.5 mph - N/A   Clear
7:35 AM 30.2 °F 24.3 °F 28.4 °F 93% 30.43 in 10.0 mi North 5.8 mph - N/A   Clear
7:55 AM 32.0 °F 25.6 °F 28.4 °F 87% 30.44 in 7.0 mi North 6.9 mph - N/A   Clear
8:15 AM 32.0 °F 24.8 °F 28.4 °F 87% 30.44 in 7.0 mi NNE 8.1 mph - N/A   Clear
8:35 AM 32.0 °F 24.8 °F 30.2 °F 93% 30.45 in 10.0 mi North 8.1 mph - N/A   Clear
8:55 AM 33.8 °F 25.8 °F 30.2 °F 87% 30.45 in 10.0 mi NNE 10.4 mph - N/A   Clear
9:35 AM 35.6 °F 29.9 °F 30.2 °F 81% 30.46 in 10.0 mi NNE 6.9 mph 10.4 mph N/A   Clear
9:55 AM 37.4 °F 32.8 °F 30.2 °F 75% 30.46 in 10.0 mi North 5.8 mph - N/A   Clear
10:15 AM 39.2 °F 34.2 °F 30.2 °F 70% 30.47 in 10.0 mi NE 6.9 mph - N/A   Clear
10:35 AM 41.0 °F 38.0 °F 30.2 °F 65% 30.47 in 10.0 mi NNE 4.6 mph - N/A   Clear
10:55 AM 42.8 °F 40.1 °F 30.2 °F 61% 30.46 in 10.0 mi NNE 4.6 mph - N/A   Clear
11:15 AM 42.8 °F 41.1 °F 32.0 °F 66% 30.45 in 10.0 mi East 3.5 mph - N/A   Clear
11:35 AM 44.6 °F - 32.0 °F 61% 30.44 in 10.0 mi Calm Calm - N/A   Clear
11:55 AM 46.4 °F 45.2 °F 32.0 °F 57% 30.43 in 10.0 mi SE 3.5 mph - N/A   Clear
12:15 PM 46.4 °F - 32.0 °F 57% 30.42 in 10.0 mi Calm Calm - N/A   Clear
12:35 PM 48.2 °F - 30.2 °F 50% 30.41 in 10.0 mi ESE 3.5 mph - N/A   Clear
12:55 PM 50.0 °F - 30.2 °F 47% 30.40 in 10.0 mi ESE 5.8 mph - N/A   Clear
1:15 PM 50.0 °F - 30.2 °F 47% 30.39 in 10.0 mi SE 4.6 mph - N/A   Clear
1:35 PM 51.8 °F - 30.2 °F 44% 30.37 in 10.0 mi East 4.6 mph - N/A   Clear
1:55 PM 51.8 °F - 30.2 °F 44% 30.36 in 10.0 mi East 5.8 mph - N/A   Clear
2:15 PM 51.8 °F - 30.2 °F 44% 30.35 in 10.0 mi ESE 4.6 mph - N/A   Clear
2:35 PM 51.8 °F - 28.4 °F 41% 30.34 in 10.0 mi WSW 3.5 mph - N/A   Clear
2:55 PM 51.8 °F - 30.2 °F 44% 30.33 in 10.0 mi South 4.6 mph - N/A   Clear
3:15 PM 53.6 °F - 28.4 °F 38% 30.33 in 10.0 mi SSW 4.6 mph - N/A   Clear
3:55 PM 51.8 °F - 28.4 °F 41% 30.32 in 10.0 mi South 5.8 mph - N/A   Clear
4:15 PM 51.8 °F - 28.4 °F 41% 30.32 in 10.0 mi South 4.6 mph - N/A   Clear
4:35 PM 51.8 °F - 28.4 °F 41% 30.31 in 10.0 mi SSW 4.6 mph - N/A   Clear
4:55 PM 51.8 °F - 28.4 °F 41% 30.31 in 10.0 mi South 5.8 mph - N/A   Clear
5:15 PM 48.2 °F - 30.2 °F 50% 30.31 in 10.0 mi South 5.8 mph - N/A   Clear
5:35 PM 46.4 °F 45.2 °F 30.2 °F 53% 30.31 in 10.0 mi SSW 3.5 mph - N/A   Clear
5:55 PM 46.4 °F 45.2 °F 30.2 °F 53% 30.31 in 10.0 mi SSW 3.5 mph - N/A   Clear
6:15 PM 46.4 °F 45.2 °F 30.2 °F 53% 30.30 in 10.0 mi SSW 3.5 mph - N/A   Clear
6:55 PM 42.8 °F 41.1 °F 30.2 °F 61% 30.30 in 10.0 mi South 3.5 mph - N/A   Clear
7:15 PM 42.8 °F 40.1 °F 30.2 °F 61% 30.30 in 10.0 mi South 4.6 mph - N/A   Clear
7:35 PM 41.0 °F 39.0 °F 30.2 °F 65% 30.31 in 10.0 mi South 3.5 mph - N/A   Clear
7:55 PM 41.0 °F - 30.2 °F 65% 30.32 in 10.0 mi Calm Calm - N/A   Clear
8:15 PM 41.0 °F 39.0 °F 30.2 °F 65% 30.31 in 10.0 mi South 3.5 mph - N/A   Clear
8:35 PM 41.0 °F - 30.2 °F 65% 30.31 in 10.0 mi Calm Calm - N/A   Clear
8:55 PM 39.2 °F - 30.2 °F 70% 30.32 in 10.0 mi Calm Calm - N/A   Clear
9:15 PM 37.4 °F - 30.2 °F 75% 30.33 in 10.0 mi Calm Calm - N/A   Clear
9:35 PM 39.2 °F - 30.2 °F 70% 30.33 in 10.0 mi Calm Calm - N/A   Clear
9:55 PM 37.4 °F - 30.2 °F 75% 30.33 in 10.0 mi Calm Calm - N/A   Clear
10:15 PM 37.4 °F - 30.2 °F 75% 30.33 in 10.0 mi Calm Calm - N/A   Clear
10:35 PM 37.4 °F 34.9 °F 30.2 °F 75% 30.33 in 10.0 mi ESE 3.5 mph - N/A   Clear
10:55 PM 37.4 °F 32.8 °F 30.2 °F 75% 30.33 in 10.0 mi ESE 5.8 mph - N/A   Clear
11:35 PM 33.8 °F 30.8 °F 28.4 °F 81% 30.33 in 10.0 mi SE 3.5 mph - N/A   Clear
11:55 PM 33.8 °F 29.6 °F 28.4 °F 81% 30.33 in 10.0 mi SE 4.6 mph - N/A   Clear